TimeCST,TemperatureF,Dew PointF,Humidity,Sea Level PressureIn,VisibilityMPH,Wind Direction,Wind SpeedMPH,Gust SpeedMPH,PrecipitationIn,Events,Conditions,WindDirDegrees,DateUTC
12:19 AM,33.8,28.4,81,29.78,10.0,WNW,18.4,26.5,N/A,,Overcast,300,2013-01-12 06:19:00
12:53 AM,32.0,25.0,75,29.83,10.0,West,18.4,-,N/A,,Overcast,280,2013-01-12 06:53:00
1:23 AM,30.2,21.2,69,29.84,10.0,WNW,21.9,29.9,N/A,,Scattered Clouds,300,2013-01-12 07:23:00
1:53 AM,28.9,21.0,72,29.89,10.0,NW,16.1,21.9,N/A,,Clear,310,2013-01-12 07:53:00
2:17 AM,28.4,21.2,74,29.89,10.0,NW,11.5,19.6,N/A,,Mostly Cloudy,310,2013-01-12 08:17:00
2:53 AM,28.9,19.9,69,29.94,10.0,WNW,10.4,-,N/A,,Overcast,290,2013-01-12 08:53:00
3:30 AM,26.6,15.8,64,29.94,10.0,WNW,11.5,21.9,N/A,,Scattered Clouds,300,2013-01-12 09:30:00
3:53 AM,26.1,15.1,63,29.97,10.0,WNW,12.7,21.9,N/A,,Clear,300,2013-01-12 09:53:00
4:53 AM,24.1,16.0,71,29.99,10.0,WNW,11.5,-,N/A,,Clear,290,2013-01-12 10:53:00
5:53 AM,23.0,12.0,63,30.02,10.0,WNW,9.2,18.4,N/A,,Clear,300,2013-01-12 11:53:00
6:53 AM,21.9,12.0,66,30.05,10.0,NW,5.8,-,N/A,,Clear,310,2013-01-12 12:53:00
7:53 AM,19.9,12.9,74,30.07,10.0,WNW,5.8,-,N/A,,Clear,300,2013-01-12 13:53:00
8:53 AM,23.0,14.0,68,30.09,10.0,NW,8.1,-,N/A,,Clear,310,2013-01-12 14:53:00
9:53 AM,23.0,10.0,58,30.10,10.0,NW,17.3,-,N/A,,Clear,310,2013-01-12 15:53:00
10:53 AM,23.0,10.9,60,30.14,10.0,WNW,6.9,17.3,N/A,,Clear,300,2013-01-12 16:53:00
11:53 AM,23.0,9.0,55,30.12,10.0,NW,8.1,20.7,N/A,,Clear,310,2013-01-12 17:53:00
12:53 PM,23.0,7.0,50,30.07,10.0,NW,16.1,-,N/A,,Overcast,320,2013-01-12 18:53:00
1:53 PM,24.1,8.1,51,30.09,10.0,NW,10.4,-,N/A,,Mostly Cloudy,310,2013-01-12 19:53:00
2:53 PM,27.0,9.0,47,30.08,10.0,NNW,12.7,21.9,N/A,,Mostly Cloudy,340,2013-01-12 20:53:00
3:53 PM,24.1,8.1,51,30.11,10.0,North,10.4,-,N/A,,Mostly Cloudy,350,2013-01-12 21:53:00
4:53 PM,24.1,9.0,53,30.12,10.0,NNW,12.7,-,N/A,,Overcast,330,2013-01-12 22:53:00
5:53 PM,21.9,9.0,58,30.15,10.0,NNW,10.4,-,N/A,,Overcast,330,2013-01-12 23:53:00
6:53 PM,21.9,9.0,58,30.14,10.0,North,10.4,-,N/A,,Mostly Cloudy,350,2013-01-13 00:53:00
7:53 PM,21.0,9.0,60,30.13,10.0,NNW,13.8,18.4,N/A,,Mostly Cloudy,330,2013-01-13 01:53:00
8:53 PM,19.0,8.1,62,30.14,10.0,NNW,12.7,19.6,N/A,,Partly Cloudy,340,2013-01-13 02:53:00
9:53 PM,18.0,9.0,68,30.15,10.0,NW,9.2,-,N/A,,Clear,320,2013-01-13 03:53:00
10:53 PM,16.0,7.0,68,30.14,10.0,NW,11.5,19.6,N/A,,Clear,320,2013-01-13 04:53:00
11:53 PM,15.1,6.1,68,30.16,10.0,NW,10.4,-,N/A,,Clear,320,2013-01-13 05:53:00